Weather reports worldwide

Advertisment
Landivisiau, France (7106): temperature & dewpoint: 10.01.2018 08:00:00 - 16.01.2018 08:00:00 (CET)Landivisiau, France (7106): wind speed & gusts: 10.01.2018 08:00:00 - 16.01.2018 08:00:00 (CET)Landivisiau, France (7106): wind direction: 10.01.2018 08:00:00 - 16.01.2018 08:00:00 (CET)Landivisiau, France (7106): reduced air pressure: 10.01.2018 08:00:00 - 16.01.2018 08:00:00 (CET)Landivisiau, France (7106): visibility: 10.01.2018 08:00:00 - 16.01.2018 08:00:00 (CET)Landivisiau, France (7106): precipitation: 10.01.2018 08:00:00 - 16.01.2018 08:00:00 (CET)
Date & Time tt [°C] td [°C] ff [km/h] ff [kn] fx [km/h] fx [kn] dd ppp [hPa] vv [km] rr [mm]
16.01.2018 08:00:00 9,4 7,2 31 17 68 37 W 1007,4 10 0,4
16.01.2018 07:00:00 9,9 7,1 37 20 61 33 W 1006,6 10 -
16.01.2018 06:00:00 10,2 7,1 42 23 67 36 W 1006,5 10 0,0
16.01.2018 05:00:00 10,3 7,7 39 21 67 36 W 1005,9 10 0,0
16.01.2018 04:00:00 10,1 8,4 34 18 67 36 W 1006,4 10 -
16.01.2018 03:00:00 10,1 8,7 35 19 59 32 W 1006,1 8 0,2
16.01.2018 02:00:00 10,3 7,9 37 20 67 36 W 1006,3 10 0,0
16.01.2018 01:00:00 9,8 8,1 34 18 52 28 W 1006,7 10 -
16.01.2018 00:00:00 10,0 7,1 35 19 67 36 W 1006,8 10 0,0
15.01.2018 23:00:00 9,9 8,8 35 19 57 31 W 1006,6 10 0,0
15.01.2018 22:00:00 9,9 7,7 29 16 55 30 W 1006,7 10 -
15.01.2018 21:00:00 9,9 8,3 37 20 67 36 W 1006,7 10 0,6
15.01.2018 20:00:00 10,3 9,1 34 18 57 31 W 1006,3 10 0,2
15.01.2018 19:00:00 10,0 8,3 31 17 46 25 W 1006,3 10 -
15.01.2018 18:00:00 10,4 8,7 31 17 54 29 W 1006,3 10 0,0
15.01.2018 17:00:00 10,5 8,9 29 16 46 25 W 1005,8 10 0,0
15.01.2018 16:00:00 10,3 9,5 29 16 57 31 WNW 1006,1 3,7 -
15.01.2018 15:00:00 11,3 9,9 37 20 63 34 W 1005,8 10 0,2
15.01.2018 14:00:00 10,5 9,6 34 18 67 36 WNW 1005,6 8 0,4
15.01.2018 13:00:00 11,5 10,6 41 22 68 37 W 1006,0 10 -
15.01.2018 12:00:00 11,5 11,0 39 21 70 38 W 1006,3 4,2 1,0
15.01.2018 11:00:00 11,4 11,1 42 23 63 34 WSW 1006,7 3,4 2,0
15.01.2018 10:00:00 10,6 10,3 41 22 65 35 SW 1007,2 2,8 -
15.01.2018 09:00:00 10,0 9,7 39 21 67 36 SW 1007,9 5 2,0
15.01.2018 08:00:00 9,4 9,1 41 22 63 34 SW 1009,2 6 1,0
15.01.2018 07:00:00 9,0 8,5 42 23 63 34 SW 1010,4 5 -
15.01.2018 06:00:00 8,9 8,1 37 20 52 28 SW 1011,6 6 0,2
15.01.2018 05:00:00 9,1 7,4 28 15 42 23 SW 1013,0 10 0,0
15.01.2018 04:00:00 8,8 7,4 28 15 39 21 SW 1014,4 55 -
15.01.2018 03:00:00 7,7 6,9 18 10 35 19 SSW 1015,5 10 0,0
15.01.2018 02:00:00 6,7 6,0 21 11 34 18 SSW 1017,0 10 0,0
15.01.2018 01:00:00 5,8 4,9 24 13 31 17 SSW 1017,7 10 -
15.01.2018 00:00:00 5,6 4,7 16 9 28 15 SSW 1018,2 10 0,0
14.01.2018 23:00:00 5,2 4,8 16 9 24 13 S 1018,8 8 0,0
14.01.2018 22:00:00 4,9 4,6 16 9 21 11 SSW 1019,4 6 -
14.01.2018 21:00:00 4,7 4,3 15 8 18 10 SSW 1019,2 5 0,0
14.01.2018 20:00:00 5,2 4,5 11 6 13 7 SSW 1019,0 5 0,0
14.01.2018 19:00:00 6,3 5,3 11 6 15 8 SSW 1018,6 7 -
14.01.2018 18:00:00 6,3 4,8 9 5 13 7 SE 1018,1 8 0,0
14.01.2018 17:00:00 6,6 4,6 5 3 9 5 SSE 1018,3 10 0,0
14.01.2018 16:00:00 6,8 4,6 4 2 9 5 SSE 1018,1 9 -
14.01.2018 15:00:00 7,7 4,5 2 1 13 7 - 1018,0 10 0,0
14.01.2018 14:00:00 7,5 5,3 0 0 9 5 N 1018,0 10 0,0
14.01.2018 13:00:00 5,7 5,3 0 0 5 3 N 1018,2 7 -
14.01.2018 12:00:00 4,9 4,8 4 2 5 3 W 1018,4 6 0,0
14.01.2018 11:00:00 3,7 3,6 0 0 4 2 N 1018,0 4,4 0,0
14.01.2018 10:00:00 2,0 2,0 2 1 5 3 - 1017,8 4,5 -
14.01.2018 09:00:00 0,8 0,7 4 2 8 4 SSE 1017,0 1,0 0,0
14.01.2018 08:00:00 0,8 0,5 5 3 8 4 SSE 1016,6 0,3 0,2
14.01.2018 07:00:00 2,1 1,8 0 0 5 3 N 1016,2 0,8 -
14.01.2018 06:00:00 2,7 2,6 4 2 11 6 ESE 1016,0 3,8 0,0
14.01.2018 05:00:00 2,7 2,4 5 3 8 4 ENE 1015,6 1,7 0,0
14.01.2018 04:00:00 2,8 2,5 4 2 5 3 N 1015,2 1,8 -
14.01.2018 03:00:00 3,4 3,0 4 2 5 3 - 1015,0 4,6 0,0
14.01.2018 02:00:00 3,7 3,1 4 2 11 6 - 1014,9 5 0,0
14.01.2018 01:00:00 4,0 3,4 2 1 4 2 ESE 1014,8 7 -
14.01.2018 00:00:00 3,9 3,2 4 2 9 5 ESE 1014,8 6 0,0
13.01.2018 23:00:00 4,5 3,9 8 4 13 7 ESE 1014,5 6 0,2
13.01.2018 22:00:00 4,6 4,2 9 5 21 11 SE 1014,3 6 -
13.01.2018 21:00:00 4,7 4,1 13 7 22 12 SE 1013,8 7 0,4
13.01.2018 20:00:00 4,8 4,2 18 10 24 13 SE 1013,6 6 0,2
13.01.2018 19:00:00 5,0 4,4 16 9 22 12 ESE 1013,1 7 -
13.01.2018 18:00:00 5,2 4,6 16 9 24 13 ESE 1013,0 5 0,8
13.01.2018 17:00:00 5,6 4,9 16 9 22 12 ESE 1012,7 6 1,0
13.01.2018 16:00:00 6,0 5,0 16 9 29 16 SE 1012,6 7 -
13.01.2018 15:00:00 6,5 5,0 21 11 31 17 SE 1012,5 10 0,2
13.01.2018 14:00:00 6,8 5,3 18 10 34 18 SSE 1012,7 10 0,0
13.01.2018 13:00:00 6,8 5,3 22 12 35 19 SSE 1013,3 10 -
13.01.2018 12:00:00 6,6 5,1 24 13 37 20 SSE 1013,8 10 0,0
13.01.2018 11:00:00 6,3 4,9 22 12 34 18 SSE 1013,9 10 0,0
13.01.2018 10:00:00 6,4 5,2 16 9 37 20 SE 1013,9 10 -
13.01.2018 09:00:00 6,3 5,3 22 12 42 23 SSE 1013,8 10 0,0
13.01.2018 08:00:00 6,2 5,3 28 15 42 23 SSE 1014,1 10 0,4
13.01.2018 07:00:00 6,0 5,0 22 12 44 24 SSE 1014,2 7 -
13.01.2018 06:00:00 6,1 4,6 21 11 35 19 SSE 1014,4 10 0,0
13.01.2018 05:00:00 6,0 4,3 16 9 41 22 SSE 1015,0 10 0,0
13.01.2018 04:00:00 6,0 4,2 24 13 54 29 SSE 1015,7 10 -
13.01.2018 03:00:00 6,1 4,3 35 19 54 29 SSE 1015,8 10 0,0
13.01.2018 02:00:00 5,8 4,1 29 16 41 22 SSE 1016,8 10 0,0
13.01.2018 01:00:00 5,7 4,0 29 16 42 23 SSE 1018,2 14 -
13.01.2018 00:00:00 5,5 4,0 26 14 48 26 SSE 1018,6 10 0,0
12.01.2018 23:00:00 5,0 3,5 26 14 41 22 SE 1019,0 10 0,0
12.01.2018 22:00:00 5,1 3,9 22 12 39 21 SSE 1019,7 10 -
12.01.2018 21:00:00 5,0 3,8 16 9 37 20 SE 1020,8 8 0,0
12.01.2018 20:00:00 5,1 3,8 22 12 34 18 SE 1020,5 8 0,0
12.01.2018 19:00:00 5,2 4,0 21 11 29 16 SE 1021,0 7 -
12.01.2018 18:00:00 5,3 4,1 18 10 31 17 SSE 1021,8 6 0,0
12.01.2018 17:00:00 5,8 4,4 24 13 37 20 SSE 1022,1 8 0,0
12.01.2018 16:00:00 6,4 4,9 21 11 29 16 SSE 1022,5 8 -
12.01.2018 15:00:00 6,4 4,9 21 11 34 18 SSE 1023,0 9 0,0
12.01.2018 14:00:00 6,8 4,8 16 9 26 14 SSE 1023,6 9 0,0
12.01.2018 13:00:00 7,6 5,2 16 9 24 13 SSE 1024,3 10 -
12.01.2018 12:00:00 5,2 3,7 13 7 22 12 SE 1025,1 9 0,0
12.01.2018 11:00:00 3,6 2,7 13 7 16 9 SSE 1026,0 8 0,2
12.01.2018 10:00:00 1,8 1,7 11 6 18 10 SSE 1025,9 6 -
12.01.2018 09:00:00 0,0 -0,1 11 6 13 7 SE 1025,9 5 0,0
12.01.2018 08:00:00 1,0 0,9 4 2 11 6 - 1025,9 4,8 0,0
12.01.2018 07:00:00 0,9 0,8 5 3 9 5 SE 1025,5 4,9 -
12.01.2018 06:00:00 0,3 0,0 5 3 8 4 SE 1025,7 4,8 0,0
12.01.2018 05:00:00 1,9 1,8 8 4 11 6 SSW 1026,1 6 0,0
12.01.2018 04:00:00 0,0 -0,3 9 5 11 6 S 1026,5 2,3 -
12.01.2018 03:00:00 2,3 2,0 8 4 9 5 SW 1026,5 2,5 0,2
12.01.2018 02:00:00 2,9 2,6 5 3 11 6 SSW 1026,6 4,7 0,0
12.01.2018 01:00:00 2,9 2,5 5 3 9 5 S 1026,4 1,1 -
12.01.2018 00:00:00 4,1 3,5 8 4 9 5 S 1025,9 5 0,0
11.01.2018 23:00:00 4,1 3,2 5 3 8 4 SE 1025,9 7 0,0
11.01.2018 22:00:00 3,8 3,2 0 0 13 7 N 1025,8 7 -
11.01.2018 21:00:00 3,8 3,2 9 5 13 7 NNE 1025,5 10 0,0
11.01.2018 20:00:00 5,1 4,4 5 3 11 6 NNE 1024,6 9 0,0
11.01.2018 19:00:00 5,9 4,9 9 5 18 10 NNE 1023,8 10 -
11.01.2018 18:00:00 7,0 5,9 13 7 18 10 NE 1022,8 10 0,0
11.01.2018 17:00:00 8,4 6,4 15 8 26 14 NNE 1022,4 10 0,0
11.01.2018 16:00:00 9,4 6,7 16 9 31 17 NE 1021,3 10 -
11.01.2018 15:00:00 9,9 7,5 18 10 34 18 NE 1020,3 10 0,0
11.01.2018 14:00:00 10,3 8,4 21 11 35 19 NE 1019,4 10 0,0
11.01.2018 13:00:00 9,4 7,3 18 10 41 22 NE 1019,0 19 -
11.01.2018 12:00:00 9,0 7,0 22 12 37 20 ENE 1018,2 10 0,0
11.01.2018 11:00:00 8,9 7,5 16 9 34 18 NE 1017,1 10 0,0
11.01.2018 10:00:00 8,4 7,3 21 11 29 16 NE 1015,5 10 -
11.01.2018 09:00:00 7,9 7,1 16 9 29 16 NE 1013,4 17 0,0
11.01.2018 08:00:00 7,7 6,9 18 10 35 19 NE 1011,9 10 0,0
11.01.2018 07:00:00 7,1 6,8 13 7 21 11 NE 1010,2 10 -
11.01.2018 06:00:00 6,6 6,3 11 6 18 10 NE 1008,6 7 0,2
11.01.2018 05:00:00 6,9 6,5 8 4 11 6 NE 1007,2 10 0,0
11.01.2018 04:00:00 6,9 6,3 0 0 5 3 N 1006,0 10 -
11.01.2018 03:00:00 6,9 6,2 0 0 15 8 N 1004,8 10 0,0
11.01.2018 02:00:00 7,0 6,4 11 6 18 10 W 1004,1 10 0,0
11.01.2018 01:00:00 7,1 6,4 8 4 15 8 SW 1003,5 10 -
11.01.2018 00:00:00 7,2 6,5 11 6 24 13 SE 1002,7 10 0,0
10.01.2018 23:00:00 7,1 6,2 13 7 22 12 ESE 1002,2 10 0,0
10.01.2018 22:00:00 7,5 6,0 13 7 29 16 ESE 1002,0 10 -
10.01.2018 21:00:00 7,7 6,2 16 9 29 16 ESE 1001,8 10 0,0
10.01.2018 20:00:00 7,7 6,0 16 9 31 17 ESE 1001,8 10 0,0
10.01.2018 19:00:00 8,2 6,3 18 10 41 22 SE 1002,0 10 -
10.01.2018 18:00:00 9,0 6,8 22 12 39 21 SE 1002,5 10 0,2
10.01.2018 17:00:00 9,3 6,2 18 10 37 20 SSE 1002,7 10 0,0
10.01.2018 16:00:00 10,0 6,7 21 11 39 21 SSE 1002,9 10 -
10.01.2018 15:00:00 10,1 6,6 18 10 37 20 S 1003,6 10 0,0
10.01.2018 14:00:00 10,7 7,0 22 12 34 18 SSE 1004,2 10 0,0
10.01.2018 13:00:00 10,3 6,8 21 11 29 16 S 1005,6 10 -
10.01.2018 12:00:00 9,8 7,0 13 7 18 10 S 1006,3 10 0,0
10.01.2018 11:00:00 7,1 5,7 11 6 16 9 SSE 1006,7 10 0,0
10.01.2018 10:00:00 5,3 4,9 13 7 16 9 S 1007,2 10 -
10.01.2018 09:00:00 4,4 3,8 13 7 16 9 S 1007,4 10 0,0
10.01.2018 08:00:00 4,5 3,8 13 7 16 9 S 1007,2 10 0,0

tt = temperature
td = dewpoint
ff = wind speed
fx = gusts
dd = wind direction
ppp = reduced air pressure
vv = visibility
rr = precipitation

Next stations